Change the Weather History Date:

Sunday, May 25, 2014

  Actual Average Record
Temperature  
Mean Temperature 62 °F -  
Max Temperature 77 °F 81 °F 80 °F (2013)
Min Temperature 46 °F 43 °F 46 °F (2014)
Degree Days  
Heating Degree Days 4    
Growing Degree Days 12 (Base 50)    
Moisture  
Dew Point 36 °F    
Average Humidity 41    
Maximum Humidity 93    
Minimum Humidity 17    
Precipitation  
Precipitation 0.00 in - - ()
Sea Level Pressure  
Sea Level Pressure 30.08 in    
Wind  
Wind Speed 6 mph (WNW)    
Max Wind Speed 15 mph    
Max Gust Speed 24 mph    
Visibility 10 miles    
Events Rain    
Averages and records for this station are not official NWS values.
T = Trace of Precipitation, MM = Missing Value Source: NWS Daily Summary

Daily Weather History Graph

Daily Weather History Graph

Search for Another Location

Airport or City:

Trip Planner

Search our weather history database for the weather conditions in past years. The results will help you decide how hot, cold, wet, or windy it might be!

Date:

Astronomy

May. 25, 2014 Rise Set
Actual Time 5:17 AM MST 7:27 PM MST
Civil Twilight 4:48 AM MST 7:56 PM MST
Nautical Twilight 4:14 AM MST 8:31 PM MST
Astronomical Twilight 3:36 AM MST 9:08 PM MST
Moon 3:15 AM MST (5/25) 4:39 PM MST (5/25)
Length of Visible Light 15h 07m
Length of Day
14h 10m
Waning Crescent, 10% of the Moon is Illuminated
May 25
Waning Crescent
May 28
New
Jun 5
First Quarter
Jun 12
Full
Jun 19
Last Quarter

Hourly Weather History & Observations

Time (MST) Temp. Windchill Dew Point Humidity Pressure Visibility Wind Dir Wind Speed Gust Speed Precip Events Conditions
12:15 AM 59.0 °F - 35.6 °F 42% 30.10 in 10.0 mi North 8.1 mph - N/A   Overcast
12:35 AM 59.0 °F - 35.6 °F 42% 30.09 in 10.0 mi NNE 9.2 mph - N/A   Overcast
12:55 AM 59.0 °F - 39.2 °F 48% 30.09 in 10.0 mi North 11.5 mph - N/A Rain Light Rain
1:15 AM 57.2 °F - 39.2 °F 51% 30.09 in 10.0 mi ENE 11.5 mph 17.3 mph N/A   Light Drizzle
1:35 AM 57.2 °F - 39.2 °F 51% 30.10 in 10.0 mi NNE 13.8 mph - N/A   Light Drizzle
1:55 AM 55.4 °F - 41.0 °F 58% 30.11 in 10.0 mi North 15.0 mph 23.0 mph N/A   Mostly Cloudy
2:15 AM 51.8 °F - 44.6 °F 76% 30.11 in 4.0 mi Calm Calm 24.2 mph N/A Rain Heavy Rain
2:35 AM 51.8 °F - 46.4 °F 82% 30.08 in 10.0 mi Variable 3.5 mph - N/A Rain Light Rain
2:55 AM 51.8 °F - 46.4 °F 82% 30.08 in 10.0 mi NE 5.8 mph - N/A   Mostly Cloudy
3:15 AM 50.0 °F - 44.6 °F 82% 30.07 in 10.0 mi ENE 8.1 mph - N/A   Overcast
3:35 AM 50.0 °F - 44.6 °F 82% 30.07 in 10.0 mi ENE 6.9 mph - N/A   Mostly Cloudy
3:55 AM 50.0 °F - 44.6 °F 82% 30.07 in 10.0 mi ENE 3.5 mph - N/A   Mostly Cloudy
4:15 AM 50.0 °F - 42.8 °F 76% 30.07 in 10.0 mi ENE 4.6 mph - N/A   Scattered Clouds
4:35 AM 50.0 °F - 44.6 °F 82% 30.07 in 10.0 mi Calm Calm - N/A   Clear
4:55 AM 50.0 °F - 42.8 °F 76% 30.07 in 10.0 mi Calm Calm - N/A   Clear
5:15 AM 48.2 °F - 44.6 °F 87% 30.08 in 10.0 mi NNW 3.5 mph - N/A   Clear
5:35 AM 46.4 °F 45.2 °F 44.6 °F 93% 30.08 in 10.0 mi North 3.5 mph - N/A   Clear
5:55 AM 46.4 °F 44.3 °F 42.8 °F 87% 30.09 in 10.0 mi North 4.6 mph - N/A   Clear
6:15 AM 48.2 °F - 42.8 °F 82% 30.09 in 10.0 mi Calm Calm - N/A   Clear
6:35 AM 50.0 °F - 44.6 °F 82% 30.09 in 10.0 mi Calm Calm - N/A   Clear
6:55 AM 51.8 °F - 44.6 °F 76% 30.10 in 10.0 mi Calm Calm - N/A   Clear
7:15 AM 51.8 °F - 44.6 °F 76% 30.10 in 10.0 mi Calm Calm - N/A   Clear
8:15 AM 60.8 °F - 41.0 °F 48% 30.10 in 10.0 mi Calm Calm - N/A   Clear
8:35 AM 62.6 °F - 41.0 °F 45% 30.10 in 10.0 mi Calm Calm - N/A   Clear
8:55 AM 64.4 °F - 41.0 °F 42% 30.10 in 10.0 mi Variable 3.5 mph - N/A   Clear
9:15 AM 64.4 °F - 39.2 °F 40% 30.10 in 10.0 mi SSW 5.8 mph - N/A   Clear
9:35 AM 66.2 °F - 37.4 °F 35% 30.10 in 10.0 mi WNW 5.8 mph - N/A   Clear
9:55 AM 68.0 °F - 37.4 °F 33% 30.11 in 10.0 mi WNW 8.1 mph - N/A   Clear
10:15 AM 66.2 °F - 37.4 °F 35% 30.11 in 10.0 mi Variable 5.8 mph 13.8 mph N/A   Clear
10:35 AM 66.2 °F - 37.4 °F 35% 30.11 in 10.0 mi Variable 4.6 mph - N/A   Clear
10:55 AM 69.8 °F - 35.6 °F 28% 30.11 in 10.0 mi WNW 8.1 mph - N/A   Clear
11:15 AM 68.0 °F - 35.6 °F 30% 30.10 in 10.0 mi Variable 6.9 mph 12.7 mph N/A   Clear
11:35 AM 69.8 °F - 37.4 °F 31% 30.09 in 10.0 mi WSW 9.2 mph 15.0 mph N/A   Clear
11:55 AM 69.8 °F - 33.8 °F 27% 30.09 in 10.0 mi Variable 4.6 mph 12.7 mph N/A   Clear
12:15 PM 71.6 °F - 35.6 °F 27% 30.09 in 10.0 mi West 12.7 mph - N/A   Scattered Clouds
12:35 PM 71.6 °F - 33.8 °F 25% 30.09 in 10.0 mi Calm Calm 16.1 mph N/A   Scattered Clouds
12:55 PM 71.6 °F - 33.8 °F 25% 30.08 in 10.0 mi Variable 5.8 mph 13.8 mph N/A   Clear
1:15 PM 71.6 °F - 32.0 °F 23% 30.08 in 10.0 mi SW 6.9 mph 16.1 mph N/A   Clear
1:35 PM 71.6 °F - 30.2 °F 22% 30.08 in 10.0 mi Variable 3.5 mph 12.7 mph N/A   Clear
1:55 PM 73.4 °F - 32.0 °F 22% 30.07 in 10.0 mi Variable 4.6 mph 13.8 mph N/A   Clear
2:15 PM 73.4 °F - 30.2 °F 20% 30.07 in 10.0 mi West 10.4 mph 17.3 mph N/A   Clear
2:35 PM 75.2 °F - 30.2 °F 19% 30.06 in 10.0 mi WSW 9.2 mph 17.3 mph N/A   Clear
2:55 PM 75.2 °F - 30.2 °F 19% 30.05 in 10.0 mi Variable 5.8 mph 20.7 mph N/A   Clear
3:15 PM 75.2 °F - 30.2 °F 19% 30.05 in 10.0 mi WSW 8.1 mph 15.0 mph N/A   Clear
3:35 PM 75.2 °F - 28.4 °F 18% 30.04 in 10.0 mi Variable 5.8 mph 21.9 mph N/A   Clear
3:55 PM 77.0 °F - 28.4 °F 17% 30.04 in 10.0 mi WNW 12.7 mph - N/A   Clear
4:15 PM 75.2 °F - 28.4 °F 18% 30.03 in 9.0 mi WNW 12.7 mph - N/A   Clear
4:35 PM 75.2 °F - 28.4 °F 18% 30.03 in 10.0 mi WNW 10.4 mph - N/A   Clear
4:55 PM 75.2 °F - 28.4 °F 18% 30.03 in 10.0 mi WNW 12.7 mph 23.0 mph N/A   Partly Cloudy
5:15 PM 75.2 °F - 28.4 °F 18% 30.03 in 10.0 mi WNW 9.2 mph - N/A   Clear
5:35 PM 77.0 °F - 28.4 °F 17% 30.02 in 10.0 mi North 9.2 mph 18.4 mph N/A   Clear
5:55 PM 77.0 °F - 28.4 °F 17% 30.02 in 10.0 mi Variable 6.9 mph - N/A   Partly Cloudy
6:15 PM 77.0 °F - 28.4 °F 17% 30.02 in 10.0 mi WSW 8.1 mph 16.1 mph N/A   Partly Cloudy
6:35 PM 75.2 °F - 28.4 °F 18% 30.03 in 10.0 mi SW 6.9 mph 15.0 mph N/A   Partly Cloudy
6:55 PM 75.2 °F - 28.4 °F 18% 30.04 in 10.0 mi WSW 5.8 mph 11.5 mph N/A   Scattered Clouds
7:15 PM 73.4 °F - 28.4 °F 19% 30.05 in 10.0 mi SW 9.2 mph - N/A   Scattered Clouds
7:35 PM 71.6 °F - 30.2 °F 22% 30.05 in 10.0 mi SW 5.8 mph - N/A   Scattered Clouds
7:55 PM 69.8 °F - 32.0 °F 25% 30.05 in 10.0 mi SW 5.8 mph - N/A   Partly Cloudy
8:15 PM 69.8 °F - 33.8 °F 27% 30.06 in 10.0 mi SW 6.9 mph 12.7 mph N/A   Clear
8:35 PM 69.8 °F - 33.8 °F 27% 30.07 in 10.0 mi WSW 6.9 mph - N/A   Clear
8:55 PM 69.8 °F - 33.8 °F 27% 30.08 in 10.0 mi Variable 5.8 mph - N/A   Clear
9:15 PM 69.8 °F - 33.8 °F 27% 30.09 in 10.0 mi SW 4.6 mph - N/A   Partly Cloudy
9:35 PM 68.0 °F - 33.8 °F 28% 30.10 in 10.0 mi WSW 5.8 mph - N/A   Scattered Clouds
9:55 PM 66.2 °F - 33.8 °F 30% 30.10 in 10.0 mi Calm Calm - N/A   Mostly Cloudy
10:15 PM 68.0 °F - 33.8 °F 28% 30.09 in 10.0 mi WSW 4.6 mph - N/A   Scattered Clouds
10:35 PM 66.2 °F - 33.8 °F 30% 30.09 in 10.0 mi Calm Calm - N/A   Scattered Clouds
10:55 PM 62.6 °F - 33.8 °F 34% 30.10 in 10.0 mi Calm Calm - N/A   Scattered Clouds
11:15 PM 62.6 °F - 33.8 °F 34% 30.10 in 10.0 mi NE 4.6 mph - N/A   Scattered Clouds
11:35 PM 62.6 °F - 33.8 °F 34% 30.10 in 10.0 mi Calm Calm - N/A   Partly Cloudy
11:55 PM 60.8 °F - 33.8 °F 36% 30.10 in 10.0 mi Calm Calm - N/A   Partly Cloudy